Simultaneous Nadir Overpasses (SNOs) Predictions

Prediction of SNOs between METOP-B and NOAA-19 Satellite Orbit:

Table of predicted SNOs for the next 14.0 days since TLE Epoch: 4/22/2023
Index Date (METOP-B) Time (METOP-B) Lat,Lon (METOP-B) SZA (METOP-B ) Date (NOAA-19) Time (NOAA-19) Lat,Lon (NOAA-19) SZA (NOAA-19 ) Distance(km) Time Diff (sec)
1 04/28/2023 00:32:06 -80.94, 26.70 111.38 04/28/2023 00:30:51 -80.93, 26.55 111.43 2.76 75
2 04/28/2023 01:22:47 80.93,-166.10 68.60 04/28/2023 01:21:45 80.93,-165.97 68.59 2.22 62
3 04/28/2023 02:13:28 -80.93, 1.19 111.42 04/28/2023 02:12:50 -80.93, 1.12 111.44 1.21 38
4 04/28/2023 03:04:08 80.94, 168.76 68.60 04/28/2023 03:03:44 80.93, 168.60 68.57 2.94 24
5 04/28/2023 03:54:49 -80.94, -23.95 111.42 04/28/2023 03:54:48 -80.93, -23.92 111.42 0.80 1
6 04/28/2023 04:45:30 80.93, 143.26 68.56 04/28/2023 04:45:43 80.93, 143.18 68.56 1.38 13
7 04/28/2023 05:36:11 -80.93, -49.45 111.46 04/28/2023 05:36:47 -80.93, -49.35 111.43 1.84 36
8 04/28/2023 06:26:52 80.92, 117.75 68.52 04/28/2023 06:27:42 80.93, 117.75 68.54 0.85 50



Historial Predications of SNOs between METOP-B and NOAA-19
